星链-31453 (STARLINK-31453 )

导读

STARLINK-31453是美国太空探索技术公司SpaceX星链互联网卫星星座中的一员,于2024年4月17日发射升空。星链项目旨在构建全球卫星互联网覆盖网络,该卫星入轨后,将和其他星链卫星协同工作,为全球多地用户提供低延迟、高速率的宽带互联网服务。

基本信息
目录编号:
59522
目录名称:
STARLINK-31453
国际标识:
2024-073M
轨道中心:
EARTH
卫星名称:
星链-31453
卫星全名:
星链-31453 (STARLINK-31453 )
卫星状态:
在轨 (已飞行788 天)
发射日期:
2024-04-17 UTC
国别 :
美国 (US)
星等 :
--
轨道信息
数据来源 国际轨道数据
星历时间: 2026-06-13T22:02:43+0800
21小时前
查看轨道信息
半长轴: 6861.136km
偏心率: 0.0001698
轨道倾角: 43.002°
近地点辐角 268.299°
升交点赤经 118.676°
平近点角 91.767°
近地点: 481.833km
远地点: 484.165km
周期: 94.266分钟
每日圈数: 15.275969
详细信息
固有亮度:
5
最大亮度:
1.5
卫星平台:
Starlink v2.0 mini
覆盖范围:
全球
运营商:
太空探索技术公司
运营商所在国:
美国
制造商(研发单位):
太空探索技术公司
制造商所在国:
美国
使用方式:
暂无
卫星简介
星链(Starlink)计划是由太空探索技术公司(SpaceX)提出的一个巨型低轨卫星互联网星座项目,计划在2019年至2024年间在太空搭建由约1.2万颗卫星组成的“星链”网络,其中1584颗将部署在地球上空550千米处的近地轨道,并从2020年开始工作。该卫星仍在工作。
2D轨道图
3D轨道图
轨道高度分析图
轨道倾角分析图
轨道综合分析图
查看轨道综合分析图